Battle Creek, MI

5:54 AM EST on December 08, 2016 (GMT -0500)
Kellogg

Weather History for KBTL - April, 2013

Change the Weather History Date:

Monday, April 1, 2013

  Actual Average Record
Temperature  
Mean Temperature 31 °F 42 °F  
Max Temperature 37 °F 54 °F 68 °F (2003)
Min Temperature 24 °F 31 °F 24 °F (1997)
Degree Days  
Heating Degree Days 34 23  
Month to date heating degree days 34 23  
Since 1 July heating degree days 5671 5898  
Cooling Degree Days 0 0  
Month to date cooling degree days 0 0  
Year to date cooling degree days 0 0  
Moisture  
Dew Point 17 °F    
Average Humidity 57    
Maximum Humidity 75    
Minimum Humidity 38    
Precipitation  
Precipitation T in 0.08 in 0.36 in (2007)
Month to date precipitation T 0.08  
Year to date precipitation 5.27 4.99  
Sea Level Pressure  
Sea Level Pressure 29.98 in    
Wind  
Wind Speed 13 mph (NW)    
Max Wind Speed 25 mph    
Max Gust Speed 31 mph    
Visibility 9 miles    
Events Snow    
T = Trace of Precipitation, MM = Missing Value Source: NWS Daily Summary

Daily Weather History Graph

Daily Weather History Graph

Search for Another Location

Airport or City:

Trip Planner

Search our weather history database for the weather conditions in past years. The results will help you decide how hot, cold, wet, or windy it might be!

Date:

Astronomy

Apr. 01, 2013 Rise Set
Actual Time 7:23 AM EDT 8:07 PM EDT
Civil Twilight 6:54 AM EDT 8:35 PM EDT
Nautical Twilight 6:21 AM EDT 9:09 PM EDT
Astronomical Twilight 5:46 AM EDT 9:44 PM EDT
Moon 1:19 AM EDT (4/1) 11:03 AM EDT (4/1)
Length of Visible Light 13h 40m
Length of Day
12h 44m
Waning Gibbous, 67% of the Moon is Illuminated
Apr 1
Waning Gibbous
Apr 3
Last Quarter
Apr 10
New
Apr 18
First Quarter
Apr 25
Full

Hourly Weather History & Observations

Time (EDT) Temp. Windchill Dew Point Humidity Pressure Visibility Wind Dir Wind Speed Gust Speed Precip Events Conditions
12:43 AM 37.4 °F 28.2 °F 28.4 °F 70% 29.77 in 10.0 mi NW 16.1 mph - 0.00 in   Overcast
12:53 AM 37.0 °F 27.7 °F 27.0 °F 67% 29.78 in 10.0 mi NW 16.1 mph - 0.00 in   Overcast
1:19 AM 35.6 °F 26.6 °F 28.4 °F 75% 29.78 in 2.5 mi NW 13.8 mph 25.3 mph 0.00 in Snow Light Snow
1:25 AM 35.6 °F 27.1 °F 28.4 °F 75% 29.78 in 3.0 mi WNW 12.7 mph - 0.00 in Snow Light Snow
1:53 AM 35.1 °F 25.2 °F 28.0 °F 76% 29.80 in 10.0 mi WNW 16.1 mph - 0.00 in   Overcast
2:03 AM 33.8 °F 23.2 °F 26.6 °F 75% 29.80 in 9.0 mi NNW 17.3 mph 31.1 mph 0.00 in Snow Light Snow
2:17 AM 32.0 °F 20.8 °F 23.0 °F 69% 29.81 in 9.0 mi NNW 17.3 mph 24.2 mph 0.00 in   Overcast
2:53 AM 30.9 °F 21.7 °F 21.0 °F 67% 29.84 in 10.0 mi NW 11.5 mph - 0.00 in   Scattered Clouds
3:53 AM 30.0 °F 19.1 °F 19.9 °F 66% 29.86 in 10.0 mi NNW 15.0 mph 20.7 mph N/A   Mostly Cloudy
4:53 AM 28.9 °F 16.9 °F 17.1 °F 61% 29.89 in 10.0 mi NNW 17.3 mph - N/A   Clear
5:53 AM 28.0 °F 18.6 °F 17.1 °F 63% 29.92 in 10.0 mi NW 10.4 mph - N/A   Clear
6:53 AM 27.0 °F 19.5 °F 16.0 °F 63% 29.95 in 10.0 mi NW 6.9 mph - N/A   Partly Cloudy
7:53 AM 28.0 °F 19.3 °F 16.0 °F 61% 29.97 in 10.0 mi NW 9.2 mph - N/A   Mostly Cloudy
8:53 AM 30.0 °F 21.1 °F 17.1 °F 59% 30.00 in 10.0 mi NW 10.4 mph - 0.00 in   Scattered Clouds
9:53 AM 30.0 °F 17.9 °F 10.9 °F 45% 30.02 in 10.0 mi NW 18.4 mph 26.5 mph N/A   Overcast
10:53 AM 30.9 °F 19.1 °F 10.9 °F 43% 30.04 in 10.0 mi NW 18.4 mph 25.3 mph N/A   Mostly Cloudy
11:53 AM 34.0 °F 24.2 °F 12.0 °F 40% 30.06 in 10.0 mi WNW 15.0 mph 23.0 mph N/A   Mostly Cloudy
12:53 PM 34.0 °F 23.8 °F 14.0 °F 44% 30.06 in 10.0 mi WNW 16.1 mph - N/A   Overcast
1:53 PM 33.1 °F 21.5 °F 12.0 °F 42% 30.07 in 10.0 mi NW 19.6 mph 29.9 mph N/A   Mostly Cloudy
2:53 PM 36.0 °F 24.4 °F 12.0 °F 37% 30.08 in 10.0 mi WNW 23.0 mph 29.9 mph N/A   Mostly Cloudy
3:53 PM 34.0 °F 23.0 °F 12.0 °F 40% 30.09 in 10.0 mi WNW 18.4 mph 26.5 mph N/A   Overcast
4:53 PM 30.9 °F 19.8 °F 10.9 °F 43% 30.11 in 10.0 mi WNW 16.1 mph 23.0 mph N/A   Overcast
5:53 PM 30.9 °F 19.8 °F 10.9 °F 43% 30.11 in 10.0 mi WNW 16.1 mph 25.3 mph N/A   Overcast
6:53 PM 30.0 °F 18.3 °F 10.0 °F 43% 30.12 in 10.0 mi NW 17.3 mph - N/A   Overcast
7:53 PM 28.9 °F 17.7 °F 10.9 °F 47% 30.12 in 10.0 mi WNW 15.0 mph - N/A   Overcast
8:53 PM 28.0 °F 19.3 °F 10.9 °F 49% 30.13 in 10.0 mi NW 9.2 mph - N/A   Mostly Cloudy
9:53 PM 27.0 °F 19.5 °F 12.0 °F 53% 30.14 in 10.0 mi NW 6.9 mph - N/A   Mostly Cloudy
10:53 PM 24.1 °F 18.2 °F 12.9 °F 62% 30.15 in 10.0 mi WNW 4.6 mph - N/A   Clear
11:53 PM 25.0 °F 20.7 °F 15.1 °F 66% 30.14 in 10.0 mi WSW 3.5 mph - N/A   Overcast